{"data":{"norad_id":52856,"intl_designator":"2022-062AC","name":"STARLINK-4201","alt_names":[],"object_type":"PAYLOAD","status":"ACTIVE","operator":null,"country":"US","launch_date":"2022-06-17","launch_site_code":"AFETR","launch_vehicle":null,"mission":null,"orbit_class":"UNKNOWN","rcs_meters":null,"size_class":null,"mass_kg":null,"dimensions":null,"purposes":["comms"],"wikipedia_slug":null,"has_3d_model":false,"image_url":null,"decayed_at":null,"tle_current":{"epoch":"2026-09-19T13:10:31.823616Z","epoch_age_seconds":151044,"freshness":"FRESH","line1":"1 52856U 22062AC  26262.54897944 -.00001356  00000+0 -29921-4 0  9999","line2":"2 52856  53.1602 222.3865 0001145  81.3697 278.7435 15.33539843235345","mean_motion":15.33539843,"eccentricity":0.0001145,"inclination_deg":53.1602,"raan_deg":222.3865,"arg_perigee_deg":81.3697,"mean_anomaly_deg":278.7435,"bstar":-2.9921e-5,"rev_number":23534,"period_min":93.900396952386,"perigee_km":464.47743390997,"apogee_km":466.04457205265,"semimajor_km":6843.3980029813,"source":"CELESTRAK","updated_at":"2026-09-20T09:00:40.115933Z"}}}